Overview Statistics Trail Chart Weather Telemetry Raw packets
 

This is the latest recevied weather packets stored in our database for station/object KC4JIR. If no packets are shown the sender has not sent any weather packets the latest 10 day(s).

<< 76 77 78 79 80 81 82 >>
Time Temp. Humidity Pressure Rain* Wind** Luminosity Snow
1788094268 23.33° C 99% 1019 hPa 0 mm - 62 W/m² -
1788093970 23.33° C 99% 1019.2 hPa 0 mm - 56 W/m² -
1788093663 23.33° C 99% 1019 hPa 0 mm - 41 W/m² -
1788093360 23.33° C 99% 1019.1 hPa 0 mm - 45 W/m² -
1788093055 23.33° C 99% 1019 hPa 0 mm - 48 W/m² -
1788092751 23.33° C 99% 1019.1 hPa 0 mm - 42 W/m² -
1788092447 23.33° C 99% 1018.8 hPa 0 mm - 42 W/m² -
1788092143 23.33° C 99% 1018.9 hPa 0 mm - 35 W/m² -
1788091842 23.33° C 99% 1018.8 hPa 0 mm - 32 W/m² -
1788091538 23.33° C 99% 1019 hPa 0 mm - 31 W/m² -
1788091234 23.33° C 99% 1018.8 hPa 0 mm - 23 W/m² -
1788090930 23.33° C 99% 1018.8 hPa 0 mm - 19 W/m² -
1788090625 23.33° C 99% 1018.7 hPa 0 mm - 19 W/m² -
1788090322 23.33° C 99% 1018.6 hPa 0 mm - 12 W/m² -
1788090016 23.33° C 99% 1018.6 hPa 0 mm - 11 W/m² -
1788089716 22.78° C 99% 1018.2 hPa 0 mm - 9 W/m² -
1788089412 22.78° C 99% 1018.2 hPa 0 mm - 6 W/m² -
1788089108 22.78° C 99% 1018.1 hPa 0 mm - 3 W/m² -
1788088804 22.78° C 99% 1018.1 hPa 0 mm - 2 W/m² -
1788088499 22.78° C 99% 1018.1 hPa 0 mm - 0 W/m² -
1788088195 22.78° C 99% 1018.1 hPa 0 mm - 0 W/m² -
1788087889 22.78° C 99% 1018 hPa 0 mm - 0 W/m² -
1788087589 22.78° C 99% 1017.8 hPa 0 mm - 0 W/m² -
1788087285 22.78° C 99% 1017.7 hPa 0 mm - 0 W/m² -
1788086981 22.78° C 99% 1017.8 hPa 0 mm - 0 W/m² -

* Rain latest hour (hover to see other rain measurements)
** Current wind speed in m/s (hover to see current wind gust speed)